TimeCDT,TemperatureF,Dew PointF,Humidity,Sea Level PressureIn,VisibilityMPH,Wind Direction,Wind SpeedMPH,Gust SpeedMPH,PrecipitationIn,Events,Conditions,WindDirDegrees,DateUTC
12:53 AM,55.9,43.0,62,29.88,10.0,SSW,10.4,-,N/A,,Clear,200,2013-04-28 05:53:00
1:53 AM,54.0,42.1,64,29.86,10.0,SSW,11.5,23.0,N/A,,Clear,210,2013-04-28 06:53:00
2:53 AM,51.1,42.1,71,29.85,10.0,SW,8.1,-,N/A,,Clear,230,2013-04-28 07:53:00
3:53 AM,48.9,41.0,74,29.85,10.0,WSW,5.8,-,N/A,,Clear,240,2013-04-28 08:53:00
4:53 AM,44.1,39.0,82,29.84,10.0,WSW,8.1,-,N/A,,Clear,240,2013-04-28 09:53:00
5:53 AM,45.0,37.9,76,29.83,10.0,WSW,12.7,-,N/A,,Clear,250,2013-04-28 10:53:00
6:53 AM,43.0,35.1,74,29.83,10.0,WSW,9.2,-,N/A,,Clear,250,2013-04-28 11:53:00
7:53 AM,46.4,35.6,66,29.86,10.0,WSW,9.2,-,N/A,,Clear,250,2013-04-28 12:53:00
8:53 AM,52.0,35.1,53,29.83,10.0,West,9.2,-,N/A,,Clear,260,2013-04-28 13:53:00
9:53 AM,63.0,34.0,34,29.80,10.0,West,10.4,-,N/A,,Clear,270,2013-04-28 14:53:00
10:53 AM,69.1,35.1,29,29.78,10.0,West,9.2,-,N/A,,Clear,260,2013-04-28 15:53:00
11:53 AM,79.0,32.0,18,29.76,10.0,WNW,12.7,23.0,N/A,,Clear,300,2013-04-28 16:53:00
12:53 PM,84.9,28.0,13,29.73,10.0,WNW,18.4,24.2,N/A,,Clear,300,2013-04-28 17:53:00
1:53 PM,88.0,27.0,11,29.70,10.0,WNW,19.6,31.1,N/A,,Clear,290,2013-04-28 18:53:00
2:53 PM,87.1,27.0,11,29.70,10.0,NW,21.9,27.6,N/A,,Clear,310,2013-04-28 19:53:00
3:53 PM,90.0,25.0,10,29.67,10.0,West,16.1,27.6,N/A,,Clear,260,2013-04-28 20:53:00
4:53 PM,88.0,26.1,11,29.67,10.0,WNW,8.1,-,N/A,,Clear,290,2013-04-28 21:53:00
5:53 PM,87.1,27.0,11,29.67,10.0,NNW,15.0,21.9,N/A,,Clear,340,2013-04-28 22:53:00
6:53 PM,84.0,28.9,14,29.68,10.0,NNW,13.8,-,N/A,,Clear,340,2013-04-28 23:53:00
7:53 PM,77.0,35.1,22,29.69,10.0,NNE,17.3,-,N/A,,Clear,20,2013-04-29 00:53:00
8:53 PM,68.0,35.1,30,29.72,10.0,NNE,12.7,-,N/A,,Clear,30,2013-04-29 01:53:00
9:53 PM,66.0,34.0,30,29.74,10.0,NNE,16.1,26.5,N/A,,Clear,30,2013-04-29 02:53:00
10:53 PM,61.0,34.0,36,29.76,10.0,NNE,12.7,-,N/A,,Clear,30,2013-04-29 03:53:00
11:53 PM,61.0,35.1,38,29.76,10.0,NE,10.4,-,N/A,,Clear,40,2013-04-29 04:53:00